Consulta los datos en tiempo real de la estación meteorológica de Calldetenes
| Hora UTC | 07:00 |
|---|---|
| Temperatura | 14.1 ºC |
| Suelo 15 cm | 14.9 ºC |
| Humedad | 76.9 % |
| Presión | 1017.2 hPa |
| Pluja | 0.0 mm |
| Velocidad viento | 3.2 km/h |
| Dirección viento | S |
| Radiación solar | 167.6 W/m² |
| Temperatura (ºC) | Humedad (%) | Presión (hPa) | Velocidad viento (km/h) | Precipitación (mm) | Radiación solar (W/m²) | ||||||||||||||
|---|---|---|---|---|---|---|---|---|---|---|---|---|---|---|---|---|---|---|---|
| Hora UTC | Aire | Suelo 15 cm | Humedad | Presión | Vel. | Dir. | Vel. Max | Dir. | Intent. máx 5 min. | Rad. Sol. | |||||||||
| 00:05 | 13.6 | 13.1 | 82.2 | 1019.2 | 4.6 | S | 4.6 | SSW | 0.0 | 0.1 | |||||||||
| 00:10 | 13.9 | 13.3 | 82.6 | 1019.2 | 6.4 | SSW | 10.2 | SSW | 0.0 | 0.1 | |||||||||
| 00:15 | 14.1 | 13.6 | 82.2 | 1019.1 | 5.2 | SSW | 8.1 | SSW | 0.0 | 0.1 | |||||||||
| 00:20 | 14.1 | 13.8 | 81.7 | 1019.1 | 6.4 | S | 9.5 | S | 0.0 | 0.1 | |||||||||
| 00:25 | 14.1 | 13.9 | 81.7 | 1018.9 | 6.1 | S | 9.2 | SSW | 0.0 | 0.1 | |||||||||
| 00:30 | 14.2 | 14.0 | 81.6 | 1018.9 | 4.9 | SSW | 7.8 | SSW | 0.0 | 0.1 | |||||||||
| 00:35 | 14.2 | 14.0 | 81.2 | 1018.9 | 5.3 | SSW | 8.5 | SSW | 0.0 | 0.1 | |||||||||
| 00:40 | 14.1 | 14.0 | 81.5 | 1018.9 | 2.6 | SW | 4.6 | SSW | 0.0 | 0.1 | |||||||||
| 00:45 | 14.1 | 14.0 | 81.6 | 1018.7 | 4.8 | SW | 8.8 | SSW | 0.0 | 0.1 | |||||||||
| 00:50 | 14.1 | 14.0 | 81.9 | 1018.7 | 6.1 | WSW | 9.5 | WSW | 0.0 | 0.1 | |||||||||
| 00:55 | 14.1 | 14.0 | 82.1 | 1018.7 | 4.3 | SW | 8.5 | WSW | 0.0 | 0.1 | |||||||||
| 01:00 | 14.2 | 14.0 | 82.4 | 1018.7 | 3.3 | WSW | 7.4 | SW | 0.0 | 0.2 | |||||||||
| 01:05 | 14.1 | 14.0 | 82.9 | 1018.4 | 3.9 | WSW | 6.7 | SSW | 0.0 | 0.1 | |||||||||
| 01:10 | 14.1 | 14.0 | 83.1 | 1018.4 | 3.5 | WSW | 7.1 | WSW | 0.0 | 0.1 | |||||||||
| 01:15 | 14.0 | 13.9 | 83.3 | 1018.4 | 4.4 | WSW | 6.7 | WSW | 0.0 | 0.1 | |||||||||
| 01:20 | 14.0 | 13.8 | 83.5 | 1018.4 | 2.5 | WSW | 5.6 | W | 0.0 | 0.1 | |||||||||
| 01:25 | 13.9 | 13.8 | 83.2 | 1018.3 | 1.3 | WSW | 5.3 | WNW | 0.0 | 0.1 | |||||||||
| 01:30 | 13.9 | 13.8 | 82.8 | 1018.3 | 2.2 | WSW | 4.6 | SW | 0.0 | 0.1 | |||||||||
| 01:35 | 14.0 | 13.8 | 81.7 | 1018.3 | 3.6 | SW | 6.4 | SSW | 0.0 | 0.1 | |||||||||
| 01:40 | 14.0 | 13.8 | 81.4 | 1018.3 | 0.4 | SSW | 2.8 | SW | 0.0 | 0.1 | |||||||||
| 01:45 | 13.9 | 13.8 | 83.0 | 1018.0 | 0.2 | NE | 2.1 | NNE | 0.0 | 0.1 | |||||||||
| 01:50 | 13.8 | 13.7 | 83.3 | 1018.0 | 1.4 | W | 3.5 | SW | 0.0 | 0.1 | |||||||||
| 01:55 | 13.8 | 13.5 | 83.4 | 1017.9 | 2.7 | WNW | 4.6 | W | 0.0 | 0.1 | |||||||||
| 02:00 | 13.8 | 13.5 | 83.3 | 1017.9 | 1.8 | WNW | 5.6 | WNW | 0.0 | 0.1 | |||||||||
| 02:05 | 13.8 | 13.5 | 83.6 | 1017.8 | 0.9 | NW | 2.5 | NNE | 0.0 | 0.1 | |||||||||
| 02:10 | 13.8 | 13.5 | 84.6 | 1017.8 | 1.1 | WSW | 2.5 | WSW | 0.0 | 0.1 | |||||||||
| 02:15 | 13.8 | 13.5 | 85.3 | 1017.8 | 2.0 | WSW | 3.9 | SW | 0.0 | 0.1 | |||||||||
| 02:20 | 13.8 | 13.5 | 85.6 | 1017.8 | 1.2 | SW | 3.9 | WSW | 0.0 | 0.1 | |||||||||
| 02:25 | 13.8 | 13.5 | 85.3 | 1017.7 | 2.0 | E | 3.2 | E | 0.0 | 0.1 | |||||||||
| 02:30 | 13.6 | 13.5 | 86.5 | 1017.7 | 1.9 | NE | 3.2 | NNE | 0.0 | 0.1 | |||||||||
| 02:35 | 13.4 | 13.3 | 87.1 | 1017.7 | 3.0 | N | 4.6 | N | 0.0 | 0.1 | |||||||||
| 02:40 | 13.3 | 13.3 | 87.1 | 1017.7 | 3.3 | NNW | 4.9 | NNW | 0.0 | 0.1 | |||||||||
| 02:45 | 13.4 | 13.2 | 87.5 | 1017.8 | 3.8 | WNW | 6.0 | WNW | 0.0 | 0.1 | |||||||||
| 02:50 | 13.5 | 13.2 | 87.8 | 1017.8 | 4.5 | W | 9.2 | WSW | 0.0 | 0.1 | |||||||||
| 02:55 | 13.6 | 13.3 | 87.4 | 1017.8 | 5.5 | SW | 8.8 | SW | 0.0 | 0.1 | |||||||||
| 03:00 | 13.6 | 13.4 | 86.0 | 1017.8 | 4.9 | SSW | 8.8 | SW | 0.0 | 0.1 | |||||||||
| 03:05 | 13.5 | 13.5 | 83.9 | 1017.8 | 4.3 | S | 6.7 | S | 0.0 | 0.1 | |||||||||
| 03:10 | 13.4 | 13.5 | 82.0 | 1017.8 | 4.0 | SSE | 6.7 | SSE | 0.0 | 0.1 | |||||||||
| 03:15 | 13.5 | 13.5 | 81.0 | 1017.7 | 4.1 | SSE | 6.4 | SE | 0.0 | 0.1 | |||||||||
| 03:20 | 13.5 | 13.4 | 81.8 | 1017.7 | 2.3 | SSE | 4.6 | ESE | 0.0 | 0.1 | |||||||||
| 03:25 | 13.5 | 13.3 | 82.9 | 1017.7 | 0.8 | SSW | 3.5 | SSW | 0.0 | 0.1 | |||||||||
| 03:30 | 13.4 | 13.2 | 83.3 | 1017.7 | 3.9 | SSW | 6.4 | SW | 0.0 | 0.1 | |||||||||
| 03:35 | 13.6 | 13.2 | 82.3 | 1017.6 | 4.6 | SSW | 7.1 | S | 0.0 | 0.1 | |||||||||
| 03:40 | 13.6 | 13.3 | 81.2 | 1017.6 | 6.2 | SSW | 9.2 | SSW | 0.0 | 0.1 | |||||||||
| 03:45 | 13.7 | 13.4 | 79.5 | 1017.6 | 5.8 | SW | 8.8 | S | 0.0 | 0.1 | |||||||||
| 03:50 | 13.7 | 13.5 | 78.6 | 1017.6 | 5.3 | SSW | 7.4 | SSW | 0.0 | 0.1 | |||||||||
| 03:55 | 13.6 | 13.5 | 78.4 | 1017.5 | 5.5 | SW | 8.1 | SW | 0.0 | 0.1 | |||||||||
| 04:00 | 13.6 | 13.5 | 77.4 | 1017.5 | 5.5 | SW | 9.5 | WSW | 0.0 | 0.1 | |||||||||
| 04:05 | 13.6 | 13.4 | 76.6 | 1017.5 | 4.1 | SW | 7.1 | W | 0.0 | 0.1 | |||||||||
| 04:10 | 13.7 | 13.4 | 77.6 | 1017.5 | 4.7 | SSW | 6.4 | SSW | 0.0 | 0.1 | |||||||||
| 04:15 | 13.6 | 13.5 | 78.5 | 1017.5 | 5.3 | SSW | 7.4 | SSW | 0.0 | 0.1 | |||||||||
| 04:20 | 13.5 | 13.5 | 78.9 | 1017.5 | 4.7 | SSW | 7.4 | SSW | 0.0 | 0.1 | |||||||||
| 04:25 | 13.5 | 13.4 | 78.9 | 1017.5 | 5.1 | S | 7.8 | SSW | 0.0 | 0.2 | |||||||||
| 04:30 | 13.5 | 13.4 | 78.9 | 1017.5 | 3.3 | SSE | 4.9 | S | 0.0 | 0.2 | |||||||||
| 04:35 | 13.2 | 13.2 | 80.4 | 1017.1 | 2.1 | SE | 4.2 | SSE | 0.0 | 0.4 | |||||||||
| 04:40 | 12.7 | 12.7 | 84.4 | 1017.1 | 1.9 | ESE | 3.5 | ESE | 0.0 | 0.8 | |||||||||
| 04:45 | 12.3 | 12.2 | 86.4 | 1017.1 | 3.4 | E | 4.6 | E | 0.0 | 1.3 | |||||||||
| 04:50 | 12.3 | 12.0 | 85.6 | 1017.1 | 2.6 | ENE | 3.9 | ENE | 0.0 | 2.4 | |||||||||
| 04:55 | 12.2 | 12.0 | 85.9 | 1017.1 | 1.9 | NE | 3.2 | ESE | 0.0 | 5.2 | |||||||||
| 05:00 | 12.5 | 12.1 | 85.2 | 1017.1 | 4.0 | ESE | 5.6 | ESE | 0.0 | 11.0 | |||||||||
| 05:05 | 12.8 | 12.3 | 82.8 | 1017.2 | 4.3 | SE | 6.0 | SE | 0.0 | 13.6 | |||||||||
| 05:10 | 12.6 | 12.4 | 85.4 | 1017.2 | 4.7 | ESE | 6.7 | ESE | 0.0 | 11.3 | |||||||||
| 05:15 | 12.4 | 12.3 | 86.2 | 1017.2 | 6.8 | SE | 8.5 | SE | 0.0 | 11.4 | |||||||||
| 05:20 | 12.5 | 12.3 | 84.7 | 1017.2 | 6.6 | SE | 8.8 | SE | 0.0 | 13.7 | |||||||||
| 05:25 | 12.5 | 12.4 | 84.0 | 1017.2 | 7.0 | SE | 9.9 | SE | 0.0 | 15.5 | |||||||||
| 05:30 | 12.5 | 12.3 | 84.7 | 1017.2 | 5.9 | SE | 10.2 | SE | 0.0 | 18.1 | |||||||||
| 05:35 | 12.3 | 12.2 | 86.3 | 1017.2 | 4.0 | ESE | 6.4 | SE | 0.0 | 19.5 | |||||||||
| 05:40 | 12.0 | 12.2 | 88.2 | 1017.2 | 2.9 | E | 4.6 | ESE | 0.0 | 21.9 | |||||||||
| 05:45 | 12.0 | 12.2 | 86.9 | 1017.3 | 0.8 | E | 2.5 | E | 0.0 | 29.9 | |||||||||
| 05:50 | 12.3 | 12.3 | 85.7 | 1017.3 | 1.7 | SE | 2.5 | SE | 0.0 | 32.7 | |||||||||
| 05:55 | 12.5 | 12.5 | 85.9 | 1017.2 | 1.9 | SE | 3.2 | SE | 0.0 | 37.0 | |||||||||
| 06:00 | 12.7 | 12.7 | 86.9 | 1017.2 | 1.4 | SE | 2.8 | ESE | 0.0 | 36.8 | |||||||||
| 06:05 | 12.7 | 12.8 | 86.2 | 1017.3 | 1.4 | S | 3.2 | SSW | 0.0 | 39.8 | |||||||||
| 06:10 | 12.9 | 12.9 | 86.7 | 1017.3 | 0.5 | S | 2.5 | SE | 0.0 | 37.9 | |||||||||
| 06:15 | 12.9 | 13.0 | 87.7 | 1017.3 | 1.2 | SE | 2.5 | SE | 0.0 | 68.8 | |||||||||
| 06:20 | 12.9 | 13.1 | 87.8 | 1017.3 | 2.3 | SE | 4.2 | ESE | 0.0 | 84.9 | |||||||||
| 06:25 | 13.1 | 13.2 | 87.4 | 1017.3 | 0.7 | SE | 2.5 | SSE | 0.0 | 108.3 | |||||||||
| 06:30 | 13.4 | 13.5 | 84.5 | 1017.3 | 1.4 | S | 2.8 | S | 0.0 | 112.7 | |||||||||
| 06:35 | 13.7 | 13.9 | 77.8 | 1017.2 | 2.9 | SSW | 4.6 | SSW | 0.0 | 134.6 | |||||||||
| 06:40 | 13.8 | 14.1 | 77.6 | 1017.2 | 3.1 | SSW | 4.6 | SSW | 0.0 | 165.3 | |||||||||
| 06:45 | 14.0 | 14.4 | 77.2 | 1017.2 | 3.2 | SSW | 5.3 | SW | 0.0 | 159.0 | |||||||||
| 06:50 | 14.2 | 14.6 | 77.4 | 1017.2 | 2.9 | SW | 4.6 | SW | 0.0 | 152.8 | |||||||||
| 06:55 | 14.2 | 14.8 | 75.9 | 1017.2 | 3.3 | SSW | 6.0 | SSW | 0.0 | 167.1 | |||||||||
| 07:00 | 14.1 | 14.9 | 76.9 | 1017.2 | 3.2 | S | 6.4 | SSW | 0.0 | 167.6 | |||||||||
| Máxima | 14.2 | 14.9 | 88.2 | 1019.2 | 7.0 | SE | 10.2 | SE | 0.0 | 167.6 | |||||||||
| Mínima | 12.0 | 12.0 | 75.9 | 1017.1 | |||||||||||||||
| Total | 0.0 | ||||||||||||||||||